Location: Batesville
(34.7480°N, 83.6110°W)
Time: 03:58:12
(UTC-04:00)

Envisat - Pass Details

Date: 27 January 2018
Orbit: 764 x 766 km, 98.2° (Epoch: 27 May)

Event Time Altitude Azimuth Distance (km) Brightness Sun altitude
Exits shadow 21:07:30 14° 318° (NW) 2,017 5.5 -38.8°
Drops below altitude 10° 21:08:23 10° 324° (NW) 2,304 5.8 -39.0°
Sets 21:10:58 0° 335° (NNW) 3,234 6.6 -39.5°
